UAE9354 OOMS-OMDW

Flight info

Callsign UAE9354
Flight time 0h 33m
Altitude 20000
Route DAPOK T508 SOLUD DCT UMAMI
Aircraft B744/H-SDE3FGHIM1M2RWXYZ/LB1

Departure

Time 2026-04-20 21:54
Airport Muscat International Airport (OOMS)

Arrival

Time 2026-04-20 22:27
Airport Al Maktoum International Airport (OMDW)
Time Latitude Longitude Altitude Speed Heading
2026-04-20 21:39 23.60226 58.27733 38 ft 0 kts 220°
2026-04-20 21:41 23.60228 58.27735 38 ft 4 kts 220°
2026-04-20 21:41 23.60288 58.27795 35 ft 18 kts 245°
2026-04-20 21:42 23.60294 58.27834 34 ft 5 kts 296°
2026-04-20 21:42 23.60287 58.27847 35 ft 0 kts 310°
2026-04-20 21:44 23.60288 58.27846 35 ft 3 kts 310°
2026-04-20 21:44 23.60325 58.27795 38 ft 14 kts 308°
2026-04-20 21:44 23.60412 58.27687 38 ft 23 kts 328°
2026-04-20 21:44 23.60485 58.27714 38 ft 10 kts 79°
2026-04-20 21:45 23.60494 58.27837 38 ft 21 kts 85°
2026-04-20 21:45 23.60510 58.28036 38 ft 31 kts 85°
2026-04-20 21:45 23.60529 58.28284 38 ft 33 kts 85°
2026-04-20 21:45 23.60549 58.28525 38 ft 31 kts 85°
2026-04-20 21:46 23.60564 58.28707 38 ft 20 kts 85°
2026-04-20 21:46 23.60575 58.28845 37 ft 17 kts 85°
2026-04-20 21:46 23.60586 58.28968 38 ft 16 kts 84°
2026-04-20 21:46 23.60596 58.29087 38 ft 16 kts 85°
2026-04-20 21:47 23.60605 58.29203 38 ft 15 kts 85°
2026-04-20 21:47 23.60615 58.29331 38 ft 18 kts 85°
2026-04-20 21:47 23.60625 58.29462 38 ft 17 kts 85°
2026-04-20 21:47 23.60635 58.29599 38 ft 19 kts 85°
2026-04-20 21:48 23.60674 58.29711 38 ft 10 kts 26°
2026-04-20 21:48 23.60724 58.29710 38 ft 0 kts 355°
2026-04-20 21:51 23.60750 58.29708 38 ft 6 kts 355°
2026-04-20 21:51 23.60810 58.29703 38 ft 11 kts 355°
2026-04-20 21:52 23.60883 58.29671 38 ft 12 kts 306°
2026-04-20 21:52 23.60897 58.29581 38 ft 12 kts 265°
2026-04-20 21:52 23.60896 58.29571 38 ft 0 kts 265°
2026-04-20 21:53 23.60895 58.29554 38 ft 17 kts 265°
2026-04-20 21:53 23.60857 58.29071 38 ft 112 kts 265°
2026-04-20 21:54 23.60761 58.27917 39 ft 189 kts 265°
2026-04-20 21:54 23.60638 58.26354 542 ft 218 kts 266°
2026-04-20 21:54 23.60514 58.24615 1146 ft 244 kts 264°
2026-04-20 21:54 23.60342 58.22730 1925 ft 258 kts 264°
2026-04-20 21:55 23.60180 58.20765 2841 ft 263 kts 264°
2026-04-20 21:55 23.60022 58.18755 4149 ft 265 kts 265°
2026-04-20 21:55 23.59862 58.16757 5293 ft 270 kts 265°
2026-04-20 21:55 23.59695 58.14709 6417 ft 275 kts 266°
2026-04-20 21:56 23.59525 58.12617 7518 ft 278 kts 266°
2026-04-20 21:56 23.59353 58.10497 8616 ft 282 kts 266°
2026-04-20 21:56 23.59179 58.08367 9674 ft 287 kts 266°
2026-04-20 21:56 23.59006 58.06174 10447 ft 301 kts 270°
2026-04-20 21:57 23.59301 58.03871 10849 ft 322 kts 293°
2026-04-20 21:57 23.60479 58.01681 11245 ft 345 kts 309°
2026-04-20 21:57 23.62098 57.99616 11550 ft 371 kts 314°
2026-04-20 21:57 23.63910 57.97468 11770 ft 398 kts 313°
2026-04-20 21:58 23.65756 57.95081 11935 ft 423 kts 310°
2026-04-20 21:58 23.67591 57.92553 12835 ft 426 kts 310°
2026-04-20 21:58 23.69483 57.90035 13666 ft 431 kts 311°
2026-04-20 21:58 23.71425 57.87541 14379 ft 435 kts 311°
2026-04-20 21:59 23.73388 57.84987 15060 ft 440 kts 310°
2026-04-20 21:59 23.75326 57.82412 15717 ft 445 kts 310°
2026-04-20 21:59 23.77324 57.79763 16381 ft 450 kts 310°
2026-04-20 21:59 23.79337 57.77121 17016 ft 455 kts 310°
2026-04-20 22:00 23.81380 57.74440 17637 ft 460 kts 309°
2026-04-20 22:00 23.83402 57.71771 18227 ft 464 kts 309°
2026-04-20 22:00 23.85486 57.69014 18814 ft 467 kts 309°
2026-04-20 22:00 23.87541 57.66303 19401 ft 470 kts 309°
2026-04-20 22:01 23.89668 57.63498 19795 ft 476 kts 309°
2026-04-20 22:01 23.91754 57.60741 19797 ft 476 kts 309°
2026-04-20 22:01 23.93827 57.57998 19800 ft 474 kts 309°
2026-04-20 22:01 23.95952 57.55187 19801 ft 474 kts 309°
2026-04-20 22:02 23.98022 57.52448 19796 ft 473 kts 309°
2026-04-20 22:02 24.00114 57.49660 19803 ft 473 kts 307°
2026-04-20 22:02 24.02120 57.46815 19803 ft 472 kts 307°
2026-04-20 22:02 24.04162 57.43998 19801 ft 472 kts 308°
2026-04-20 22:03 24.06180 57.41211 19807 ft 471 kts 307°
2026-04-20 22:03 24.08112 57.38497 19805 ft 472 kts 307°
2026-04-20 22:03 24.10122 57.35662 19807 ft 472 kts 307°
2026-04-20 22:03 24.12147 57.32831 19808 ft 472 kts 307°
2026-04-20 22:04 24.14172 57.30007 19807 ft 472 kts 307°
2026-04-20 22:04 24.16197 57.27170 19808 ft 472 kts 307°
2026-04-20 22:04 24.18162 57.24408 19809 ft 472 kts 307°
2026-04-20 22:04 24.20166 57.21594 19807 ft 471 kts 307°
2026-04-20 22:05 24.22183 57.18766 19807 ft 471 kts 307°
2026-04-20 22:05 24.24170 57.15978 19807 ft 471 kts 307°
2026-04-20 22:05 24.26191 57.13135 19809 ft 472 kts 307°
2026-04-20 22:05 24.28213 57.10289 19806 ft 472 kts 307°
2026-04-20 22:06 24.30231 57.07450 19809 ft 473 kts 307°
2026-04-20 22:06 24.32246 57.04614 19808 ft 473 kts 307°
2026-04-20 22:06 24.34274 57.01757 19805 ft 473 kts 307°
2026-04-20 22:06 24.36275 56.98936 19806 ft 473 kts 307°
2026-04-20 22:07 24.38281 56.96106 19808 ft 472 kts 307°
2026-04-20 22:07 24.40301 56.93256 19804 ft 471 kts 307°
2026-04-20 22:07 24.42317 56.90410 19806 ft 470 kts 306°
2026-04-20 22:07 24.44319 56.87581 19806 ft 470 kts 306°
2026-04-20 22:08 24.46325 56.84745 19806 ft 471 kts 306°
2026-04-20 22:08 24.48335 56.81902 19805 ft 471 kts 306°
2026-04-20 22:08 24.50348 56.79053 19806 ft 472 kts 306°
2026-04-20 22:08 24.52358 56.76207 19790 ft 472 kts 306°
2026-04-20 22:09 24.54236 56.73256 19791 ft 470 kts 298°
2026-04-20 22:09 24.55721 56.70075 19797 ft 469 kts 296°
2026-04-20 22:09 24.57159 56.66896 19794 ft 469 kts 295°
2026-04-20 22:09 24.58618 56.63636 19795 ft 469 kts 295°
2026-04-20 22:10 24.60064 56.60425 19798 ft 468 kts 295°
2026-04-20 22:10 24.61516 56.57222 19804 ft 468 kts 295°
2026-04-20 22:10 24.62940 56.54070 19810 ft 468 kts 295°
2026-04-20 22:10 24.64387 56.50849 19812 ft 468 kts 295°
2026-04-20 22:11 24.65805 56.47695 19407 ft 454 kts 295°
2026-04-20 22:11 24.67201 56.44593 18550 ft 452 kts 295°
2026-04-20 22:11 24.68590 56.41506 17700 ft 448 kts 296°
2026-04-20 22:11 24.69952 56.38472 16896 ft 442 kts 296°
2026-04-20 22:12 24.71297 56.35475 16088 ft 436 kts 296°
2026-04-20 22:12 24.72595 56.32583 15313 ft 430 kts 296°
2026-04-20 22:12 24.73850 56.29784 14546 ft 425 kts 297°
2026-04-20 22:12 24.75151 56.26878 13742 ft 421 kts 297°
2026-04-20 22:13 24.76410 56.24021 13407 ft 405 kts 294°
2026-04-20 22:13 24.77171 56.21109 13197 ft 395 kts 280°
2026-04-20 22:13 24.77342 56.18110 12819 ft 390 kts 269°
2026-04-20 22:13 24.76964 56.15134 12444 ft 387 kts 260°
2026-04-20 22:14 24.76433 56.12285 12078 ft 384 kts 261°
2026-04-20 22:14 24.75924 56.09497 11722 ft 383 kts 261°
2026-04-20 22:14 24.75401 56.06630 11362 ft 381 kts 261°
2026-04-20 22:14 24.74874 56.03769 11011 ft 381 kts 261°
2026-04-20 22:15 24.74349 56.00924 10653 ft 379 kts 261°
2026-04-20 22:15 24.73827 55.98086 10304 ft 377 kts 261°
2026-04-20 22:15 24.73308 55.95271 9960 ft 375 kts 261°
2026-04-20 22:15 24.72792 55.92470 9605 ft 373 kts 261°
2026-04-20 22:16 24.72277 55.89685 9330 ft 368 kts 261°
2026-04-20 22:16 24.71785 55.87036 9077 ft 352 kts 261°
2026-04-20 22:16 24.71299 55.84415 8796 ft 337 kts 261°
2026-04-20 22:16 24.70841 55.81940 8523 ft 325 kts 261°
2026-04-20 22:17 24.70395 55.79527 8257 ft 320 kts 261°
2026-04-20 22:17 24.69951 55.77125 8002 ft 321 kts 261°
2026-04-20 22:17 24.69504 55.74720 7752 ft 321 kts 261°
2026-04-20 22:17 24.69056 55.72316 7507 ft 320 kts 261°
2026-04-20 22:18 24.68609 55.69913 7267 ft 320 kts 261°
2026-04-20 22:18 24.68164 55.67523 7034 ft 320 kts 261°
2026-04-20 22:18 24.67724 55.65169 6996 ft 317 kts 261°
2026-04-20 22:18 24.67279 55.62783 7001 ft 318 kts 261°
2026-04-20 22:19 24.67005 55.60381 7004 ft 315 kts 276°
2026-04-20 22:19 24.67507 55.58064 6984 ft 312 kts 295°
2026-04-20 22:19 24.68377 55.56096 6658 ft 309 kts 300°
2026-04-20 22:19 24.69392 55.54050 6310 ft 299 kts 301°
2026-04-20 22:20 24.70066 55.52696 5970 ft 297 kts 300°
2026-04-20 22:20 24.71308 55.50059 5506 ft 287 kts 295°
2026-04-20 22:20 24.72054 55.48077 5258 ft 276 kts 298°
2026-04-20 22:20 24.72656 55.46857 5082 ft 271 kts 303°
2026-04-20 22:21 24.73629 55.45111 4977 ft 265 kts 303°
2026-04-20 22:21 24.74322 55.43867 5005 ft 265 kts 303°
2026-04-20 22:21 24.75291 55.42113 4815 ft 272 kts 303°
2026-04-20 22:21 24.76235 55.40399 4517 ft 249 kts 303°
2026-04-20 22:22 24.77374 55.38332 4113 ft 227 kts 304°
2026-04-20 22:22 24.77917 55.37363 3918 ft 224 kts 303°
2026-04-20 22:22 24.78713 55.35925 3643 ft 223 kts 303°
2026-04-20 22:22 24.79514 55.34474 3370 ft 222 kts 303°
2026-04-20 22:23 24.80314 55.33024 3102 ft 221 kts 302°
2026-04-20 22:23 24.81036 55.31714 2842 ft 212 kts 302°
2026-04-20 22:23 24.81768 55.30384 2603 ft 194 kts 302°
2026-04-20 22:23 24.82395 55.29260 2372 ft 180 kts 303°
2026-04-20 22:24 24.83023 55.28125 2114 ft 169 kts 302°
2026-04-20 22:24 24.83627 55.27029 1901 ft 167 kts 302°
2026-04-20 22:24 24.84201 55.25989 1720 ft 166 kts 302°
2026-04-20 22:24 24.84797 55.24907 1568 ft 166 kts 302°
2026-04-20 22:25 24.85366 55.23876 1389 ft 166 kts 302°
2026-04-20 22:25 24.85958 55.22802 1194 ft 165 kts 302°
2026-04-20 22:25 24.86531 55.21764 977 ft 164 kts 301°
2026-04-20 22:25 24.87130 55.20690 767 ft 165 kts 302°
2026-04-20 22:26 24.87574 55.19882 621 ft 167 kts 301°
2026-04-20 22:26 24.88182 55.18779 364 ft 162 kts 301°
2026-04-20 22:26 24.88724 55.17804 168 ft 155 kts 301°
2026-04-20 22:27 24.89522 55.16362 161 ft 80 kts 301°
2026-04-20 22:27 24.89575 55.15928 162 ft 51 kts 256°
2026-04-20 22:27 24.89467 55.15781 163 ft 21 kts 207°
2026-04-20 22:27 24.89343 55.15708 163 ft 20 kts 208°
2026-04-20 22:28 24.89231 55.15634 163 ft 18 kts 212°
2026-04-20 22:28 24.89134 55.15567 164 ft 17 kts 212°
2026-04-20 22:28 24.89036 55.15500 165 ft 16 kts 213°
2026-04-20 22:28 24.89016 55.15442 165 ft 8 kts 284°
2026-04-20 22:29 24.89032 55.15406 165 ft 0 kts 300°